User: anonymous   Login
Location: Unspecified
(0.0000°N, 0.0000°E)
Time: 19:37:13
(UTC+00:00)
Language:

AEROCUBE 2 - Orbit

View from above orbital plane
View from above orbital plane
View from above satellite
View from above satellite

Ground track
Ground track

The orbit data is extracted from the following two-line orbital elements,

1 31133U 07012R   18351.41473328  .00000070  00000-0  24437-4 0  9992
2 31133  98.1020 296.5753 0079654 225.5931 133.8731 14.59053754620375
Epoch (UTC): 17 December 2018 09:57:12
Eccentricity: 0.0079654
inclination: 98.1020°
perigee height: 640 km
apogee height: 752 km
right ascension of ascending node: 296.5753°
argument of perigee: 225.5931°
revolutions per day: 14.59053754
mean anomaly at epoch: 133.8731°
orbit number at epoch: 62037

The dashed part of the orbit path shows where the satellite is in the earth's shadow,  

DLR